| time (UTC) | temp F | wind direction | speed MPH | gust MPH | rain 1hr in | rain 24hr in | rain mn in | humidity % | barometer mb |
| 20260502151605 | 54 | 286 | 2.0 | 6.0 | 0.00 | 0.00 | 0.00 | 35 | 1016.1 |
| 20260502130116 | 42 | 221 | 2.0 | 9.0 | 0.00 | 0.00 | 0.00 | 56 | 1017.2 |
| 20260502123122 | 39 | 194 | 3.0 | 8.0 | 0.00 | 0.00 | 0.00 | 58 | 1017.3 |
| 20260502121604 | 38 | 169 | 2.0 | 7.0 | 0.00 | 0.00 | 0.00 | 60 | 1017.2 |
| 20260502120117 | 37 | 113 | 2.0 | 6.0 | 0.00 | 0.00 | 0.00 | 61 | 1017.2 |
| 20260502114558 | 36 | 188 | 1.0 | 5.0 | 0.00 | 0.00 | 0.00 | 63 | 1017.2 |
| 20260502113057 | 34 | 157 | 0.0 | 2.0 | 0.00 | 0.00 | 0.00 | 66 | 1017.2 |
| 20260502111556 | 34 | 148 | 0.0 | 3.0 | 0.00 | 0.00 | 0.00 | 67 | 1017.2 |
| 20260502110057 | 34 | 161 | 1.0 | 3.0 | 0.00 | 0.00 | 0.00 | 68 | 1017.1 |
| 20260502104557 | 33 | 156 | 0.0 | 1.0 | 0.00 | 0.00 | 0.00 | 69 | 1017.2 |
| 20260502103053 | 34 | 165 | 0.0 | 3.0 | 0.00 | 0.00 | 0.00 | 68 | 1017.2 |
| 20260502101603 | 34 | 148 | 1.0 | 2.0 | 0.00 | 0.00 | 0.00 | 68 | 1017.3 |
| 20260502070059 | 31 | 0 | 0.0 | 0.0 | 0.00 | 0.00 | 0.00 | 79 | 1018.0 |
| 20260502064559 | 30 | 0 | 0.0 | 0.0 | 0.00 | 0.00 | 0.00 | 80 | 1018.0 |
| 20260502063101 | 31 | 0 | 0.0 | 0.0 | 0.00 | 0.00 | 0.00 | 79 | 1018.1 |
| 20260502061559 | 31 | 0 | 0.0 | 0.0 | 0.00 | 0.00 | 0.00 | 78 | 1018.1 |
| 20260502060116 | 31 | 0 | 0.0 | 1.0 | 0.00 | 0.00 | 0.00 | 78 | 1018.1 |
| 20260502054555 | 31 | 0 | 0.0 | 0.0 | 0.00 | 0.00 | 0.00 | 79 | 1018.2 |
| 20260502053059 | 32 | 0 | 0.0 | 0.0 | 0.00 | 0.00 | 0.00 | 78 | 1018.2 |
| 20260502051602 | 33 | 0 | 0.0 | 1.0 | 0.00 | 0.00 | 0.00 | 76 | 1018.2 |
| 20260502050055 | 33 | 155 | 1.0 | 2.0 | 0.00 | 0.00 | 0.00 | 76 | 1018.2 |
| 20260502044601 | 33 | 145 | 1.0 | 2.0 | 0.00 | 0.00 | 0.00 | 76 | 1018.3 |
| 20260502043154 | 32 | 144 | 1.0 | 2.0 | 0.00 | 0.00 | 0.00 | 78 | 1018.2 |
| 20260502041558 | 32 | 0 | 0.0 | 0.0 | 0.00 | 0.00 | 0.00 | 78 | 1018.3 |
| 20260502040105 | 33 | 0 | 0.0 | 1.0 | 0.00 | 0.00 | 0.00 | 77 | 1018.4 |
| 20260502034602 | 34 | 157 | 0.0 | 2.0 | 0.00 | 0.00 | 0.00 | 75 | 1018.3 |
| 20260502033106 | 34 | 157 | 1.0 | 2.0 | 0.00 | 0.00 | 0.00 | 72 | 1018.3 |
| 20260502031554 | 35 | 159 | 1.0 | 2.0 | 0.00 | 0.00 | 0.00 | 73 | 1018.3 |
| 20260502030056 | 36 | 159 | 1.0 | 2.0 | 0.00 | 0.00 | 0.00 | 72 | 1018.3 |
| 20260502024610 | 36 | 173 | 1.0 | 2.0 | 0.00 | 0.00 | 0.00 | 72 | 1018.3 |
| 20260502023056 | 37 | 39 | 0.0 | 1.0 | 0.00 | 0.00 | 0.00 | 70 | 1018.3 |
| 20260502021606 | 38 | 0 | 0.0 | 1.0 | 0.00 | 0.00 | 0.00 | 66 | 1018.2 |
| 20260502020056 | 38 | 0 | 0.0 | 0.0 | 0.00 | 0.00 | 0.00 | 61 | 1018.1 |
| 20260502014608 | 39 | 0 | 0.0 | 0.0 | 0.00 | 0.00 | 0.00 | 61 | 1018.1 |
| 20260502013102 | 40 | 0 | 0.0 | 0.0 | 0.00 | 0.00 | 0.00 | 59 | 1018.0 |
| 20260502011555 | 42 | 0 | 0.0 | 0.0 | 0.00 | 0.00 | 0.00 | 56 | 1017.9 |
| 20260502010106 | 43 | 0 | 0.0 | 0.0 | 0.00 | 0.00 | 0.00 | 52 | 1017.8 |
| 20260502004604 | 44 | 0 | 0.0 | 1.0 | 0.00 | 0.00 | 0.00 | 50 | 1017.8 |
| 20260502003101 | 45 | 31 | 0.0 | 2.0 | 0.00 | 0.00 | 0.00 | 48 | 1017.9 |
| 20260502001556 | 46 | 48 | 0.0 | 2.0 | 0.00 | 0.00 | 0.00 | 47 | 1017.7 |
| 20260502000058 | 46 | 39 | 0.0 | 2.0 | 0.00 | 0.00 | 0.00 | 48 | 1017.8 |
| 20260501234600 | 47 | 0 | 1.0 | 4.0 | 0.00 | 0.00 | 0.00 | 45 | 1017.7 |
| 20260501233058 | 47 | 41 | 1.0 | 4.0 | 0.00 | 0.00 | 0.00 | 45 | 1017.7 |
| 20260501231557 | 49 | 49 | 0.0 | 6.0 | 0.00 | 0.00 | 0.00 | 42 | 1017.7 |
| 20260501230059 | 49 | 48 | 2.0 | 4.0 | 0.00 | 0.00 | 0.00 | 43 | 1017.7 |
| 20260501224554 | 49 | 36 | 2.0 | 4.0 | 0.00 | 0.00 | 0.00 | 44 | 1017.8 |
| 20260501223106 | 50 | 294 | 1.0 | 3.0 | 0.00 | 0.00 | 0.00 | 40 | 1017.6 |
| 20260501221559 | 50 | 88 | 2.0 | 6.0 | 0.00 | 0.00 | 0.00 | 40 | 1017.9 |
| 20260501220105 | 51 | 290 | 2.0 | 5.0 | 0.00 | 0.00 | 0.00 | 40 | 1017.7 |
| 20260501214556 | 51 | 333 | 4.0 | 8.0 | 0.00 | 0.00 | 0.00 | 40 | 1017.7 |
| 20260501213058 | 50 | 317 | 2.0 | 6.0 | 0.00 | 0.00 | 0.00 | 41 | 1017.8 |
| 20260501211603 | 50 | 20 | 1.0 | 10.0 | 0.00 | 0.00 | 0.00 | 41 | 1018.0 |
| 20260501210059 | 49 | 45 | 2.0 | 5.0 | 0.00 | 0.00 | 0.00 | 42 | 1018.0 |
| 20260501204556 | 50 | 28 | 3.0 | 8.0 | 0.00 | 0.00 | 0.00 | 42 | 1018.2 |
| 20260501203053 | 50 | 44 | 4.0 | 9.0 | 0.00 | 0.00 | 0.00 | 43 | 1018.1 |
| 20260501201559 | 50 | 51 | 2.0 | 9.0 | 0.00 | 0.00 | 0.00 | 43 | 1018.2 |
| 20260501200057 | 49 | 57 | 4.0 | 9.0 | 0.00 | 0.00 | 0.00 | 42 | 1018.3 |
| 20260501194559 | 49 | 17 | 2.0 | 7.0 | 0.00 | 0.00 | 0.00 | 43 | 1018.3 |
| 20260501193105 | 49 | 306 | 5.0 | 11.0 | 0.00 | 0.00 | 0.00 | 44 | 1018.2 |
| 20260501191555 | 48 | 51 | 3.0 | 10.0 | 0.00 | 0.00 | 0.00 | 42 | 1018.3 |
| 20260501190128 | 49 | 294 | 2.0 | 11.0 | 0.00 | 0.00 | 0.00 | 45 | 1018.2 |
| 20260501184609 | 47 | 74 | 3.0 | 9.0 | 0.00 | 0.01 | 0.00 | 47 | 1018.4 |
| 20260501183054 | 47 | 50 | 3.0 | 12.0 | 0.00 | 0.01 | 0.00 | 46 | 1018.4 |
| 20260501181554 | 47 | 50 | 5.0 | 9.0 | 0.00 | 0.01 | 0.00 | 48 | 1018.3 |
| 20260501180112 | 47 | 10 | 1.0 | 10.0 | 0.00 | 0.01 | 0.00 | 48 | 1018.5 |
| 20260501174555 | 46 | 26 | 4.0 | 12.0 | 0.00 | 0.05 | 0.00 | 50 | 1018.6 |
| 20260501173055 | 46 | 15 | 2.0 | 8.0 | 0.00 | 0.05 | 0.00 | 51 | 1018.6 |
| 20260501171555 | 45 | 44 | 3.0 | 13.0 | 0.00 | 0.05 | 0.00 | 49 | 1018.6 |
| 20260501170056 | 45 | 47 | 4.0 | 9.0 | 0.00 | 0.05 | 0.00 | 48 | 1018.6 |
| 20260501164554 | 45 | 313 | 3.0 | 8.0 | 0.00 | 0.05 | 0.00 | 47 | 1018.7 |
| 20260501163058 | 45 | 55 | 4.0 | 9.0 | 0.00 | 0.05 | 0.00 | 46 | 1018.7 |
| 20260501161554 | 44 | 46 | 4.0 | 10.0 | 0.00 | 0.05 | 0.00 | 51 | 1018.7 |
| 20260501154606 | 43 | 277 | 3.0 | 7.0 | 0.00 | 0.05 | 0.00 | 51 | 1018.8 |
| 20260501153057 | 44 | 298 | 5.0 | 10.0 | 0.00 | 0.05 | 0.00 | 53 | 1019.0 |